Content
SEND FEEDBACK

Daily
Averages
Monthly
Summary
Philippines

QUEZON CITY, PHILIPPINES


Home > Asia > Philippines
Elevation: 46 meters     Latitude: 14 39N     Longitude: 121 03E

WEATHER
 
SELECT A DAY
Number of Records: 172,513;   Date Range: 7/1/96 - 7/29/14
 
SHARE

PRINT THIS DATA

[ ← Previous Day ]
WEATHER ALMANAC - 26 APRIL, 2013
[ Next Day → ]
[ °F ]   °C
Weather ElementAverageHighLow
Temperature31.2 °C35 °C (1:00 pm)28.9 °C (5:00 am)
Dewpoint24 °C26 °C (11:00 pm)21 °C (5:00 pm)
Humidity64 %79 % (1:00 am)39 % (5:00 pm)
Barometer1009.8 hPa1012.2 hPa (9:00 am)1007.1 hPa (5:00 pm)
Wind Speed11.6 km/h20.4 km/h (2:00 pm)
Weather ElementAverage
Visibility9.7 km
Wind DirectionSE (140 °)

Weather ElementTotal
Precipitation---
Cooling Degree Days13.6 (Base 18.3)
Growing Degree Days21.9 (Base 10)
Averaged from 31 records on 26 April, 2013
WEATHER CONDITIONS BREAKOUT
WIND DIRECTION BREAKOUT
WEATHER BY HOUR - 26 APRIL, 2013
[ °F ]   °C
Local TimeTemperatureDewpointHumidityBarometerVisibilityWind DirectionWind SpeedGust SpeedPrecipitationEventsConditions
1:00 AM29 °C25 °C79 %1010.2 hPa10 kmWest (260°)7.4 km/hMostly Cloudy
2:00 AM29.4 °C25 °C71 %1010.2 hPa9.7 kmSSW (200°)7.2 km/hHaze
2:00 AM29 °C25 °C79 %1009.1 hPa10 kmSSW (200°)5.6 km/hMostly Cloudy
3:00 AM29 °C25 °C79 %1009.1 hPa10 kmENE (60°)7.4 km/hMostly Cloudy
4:00 AM29 °C25 °C79 %1009.1 hPa10 kmENE (60°)7.4 km/hMostly Cloudy
5:00 AM28.9 °C23.3 °C65 %1009.5 hPa9.7 kmNE (40°)10.8 km/hHaze
5:00 AM29 °C23 °C70 %1009.1 hPa10 kmNE (40°)9.3 km/hMostly Cloudy
6:00 AM29 °C23 °C70 %1010.2 hPa9 kmNNE (20°)9.3 km/hScattered Clouds
7:00 AM29 °C24 °C74 %1011.2 hPa9 kmNNE (20°)13 km/hScattered Clouds
8:00 AM30.6 °C23.3 °C58 %1011.9 hPa9.7 kmNorth10.8 km/hHaze
8:00 AM31 °C24 °C66 %1011.2 hPa10 kmNorth (360°)13 km/hScattered Clouds
9:00 AM32 °C22 °C55 %1012.2 hPa10 kmNE (50°)13 km/hPartly Cloudy
10:00 AM32 °C24 °C62 %1012.2 hPa10 kmWNW (290°)14.8 km/hPartly Cloudy
11:00 AM33.3 °C23.9 °C49 %1011.9 hPa9.7 kmWNW (290°)18 km/hPartly Cloudy
11:00 AM34 °C24 °C56 %1011.2 hPa10 kmWNW (290°)18.5 km/hPartly Cloudy
12:00 PM33 °C24 °C59 %1010.2 hPa10 kmENE (70°)18.5 km/hPartly Cloudy
1:00 PM35 °C24 °C53 %1009.1 hPa10 kmWest (280°)16.7 km/hPartly Cloudy
2:00 PM33.9 °C23.9 °C47 %1008.8 hPa9.7 kmWest (270°)18 km/hScattered Clouds
2:00 PM34 °C24 °C56 %1008.1 hPa10 kmWest (270°)20.4 km/hPartly Cloudy
3:00 PM33 °C23 °C55 %1008.1 hPa10 kmENE (70°)16.7 km/hMostly Cloudy
4:00 PM34 °C23 °C52 %1008.1 hPa10 kmVariable9.3 km/hScattered Clouds
5:00 PM33.3 °C21.1 °C39 %1007.8 hPa9.7 kmESE (110°)7.2 km/hHaze
5:00 PM33 °C21 °C49 %1007.1 hPa10 kmESE (110°)9.3 km/hScattered Clouds
6:00 PM32 °C24 °C62 %1008.1 hPa10 kmSE (140°)11.1 km/hScattered Clouds
7:00 PM31 °C25 °C70 %1009.1 hPa10 kmSE (140°)11.1 km/hScattered Clouds
8:00 PM30.6 °C25.6 °C67 %1010.5 hPa9.7 kmSouth (170°)10.8 km/hHaze
8:00 PM31 °C25 °C70 %1010.2 hPa9 kmSouth (170°)9.3 km/hScattered Clouds
9:00 PM31 °C24 °C66 %1010.2 hPa9 kmVariable7.4 km/hScattered Clouds
10:00 PM30 °C25 °C74 %1011.2 hPa9 kmVariable7.4 km/hScattered Clouds
11:00 PM29.4 °C25.6 °C74 %1012.2 hPa9.7 kmSouth (180°)10.8 km/hHaze
11:00 PM30 °C26 °C79 %1012.2 hPa9 kmSouth (180°)9.3 km/hScattered Clouds
Hourly data recorded from RPLL, located 0 kilometers away from Quezon City, Philippines







STORIES FROM OUR PARTNERS